Grand Junction, CO

9:34 AM MDT on April 25, 2018 (GMT -0600)
Walker

Weather History for KGJT - October, 2011

Change the Weather History Date:

Sunday, October 30, 2011

  Actual Average Record
Temperature  
Mean Temperature 44 °F 47 °F  
Max Temperature 60 °F 60 °F 78 °F (1950)
Min Temperature 28 °F 34 °F 19 °F (1972)
Degree Days  
Heating Degree Days 21 18  
Month to date heating degree days 346 356  
Since 1 July heating degree days 356 430  
Cooling Degree Days 0 0  
Month to date cooling degree days 10 1  
Year to date cooling degree days 1222 1123  
Moisture  
Dew Point 28 °F    
Average Humidity 60    
Maximum Humidity 92    
Minimum Humidity 28    
Precipitation  
Precipitation 0.00 in 0.03 in 0.52 in (2005)
Month to date precipitation 0.97 1.03  
Year to date precipitation 8.86 8.07  
Snow  
Snow 0.00 in 0.10 in 3.40 in (1972)
Month to date snowfall 0.0 0.4  
Since 1 July snowfall 0.0 0.4  
Since 1 September snowfall 0.0 0.4  
Snow Depth 0.00 in    
Sea Level Pressure  
Sea Level Pressure 30.27 in    
Wind  
Wind Speed 4 mph (East)    
Max Wind Speed 10 mph    
Max Gust Speed 13 mph    
Visibility 10 miles    
Events      
T = Trace of Precipitation, MM = Missing Value Source: NWS Daily Summary

Daily Weather History Graph

Daily Weather History Graph

Search for Another Location

Airport or City:

Astronomy

Oct. 30, 2011 Rise Set
Actual Time 7:39 AM MDT 6:15 PM MDT
Civil Twilight 7:11 AM MDT 6:43 PM MDT
Nautical Twilight 6:40 AM MDT 7:14 PM MDT
Astronomical Twilight 6:09 AM MDT 7:45 PM MDT
Moon 11:59 AM MDT (10/30) 9:49 PM MDT (10/30)
Length of Visible Light 11h 31m
Length of Day
10h 36m
Waxing Crescent, 20% of the Moon is Illuminated
Oct 30
Waxing Crescent
Nov 2
First Quarter
Nov 10
Full
Nov 18
Last Quarter
Nov 24
New

Hourly Weather History & Observations

Time (MDT) Temp. Windchill Dew Point Humidity Pressure Visibility Wind Dir Wind Speed Gust Speed Precip Events Conditions
12:53 AM 34.0 °F - 28.0 °F 79% 30.25 in 10.0 mi Calm Calm - N/A   Clear
1:53 AM 34.0 °F 31.0 °F 27.0 °F 75% 30.24 in 10.0 mi East 3.5 mph - N/A   Clear
2:53 AM 33.1 °F 27.7 °F 27.0 °F 78% 30.25 in 10.0 mi ENE 5.8 mph - N/A   Clear
3:53 AM 35.1 °F - 26.1 °F 70% 30.25 in 10.0 mi Calm Calm - N/A   Clear
4:53 AM 28.9 °F 23.9 °F 26.1 °F 89% 30.27 in 10.0 mi East 4.6 mph - N/A   Clear
5:53 AM 28.4 °F 23.3 °F 26.6 °F 93% 30.30 in 10.0 mi East 4.6 mph - N/A   Clear
6:53 AM 28.9 °F - 25.0 °F 85% 30.33 in 10.0 mi Calm Calm - N/A   Clear
7:53 AM 30.0 °F 23.2 °F 26.1 °F 85% 30.35 in 10.0 mi East 6.9 mph - N/A   Clear
8:53 AM 36.0 °F 29.6 °F 27.0 °F 70% 30.36 in 10.0 mi SE 8.1 mph - N/A   Clear
9:53 AM 41.0 °F 36.4 °F 28.0 °F 60% 30.36 in 10.0 mi SE 6.9 mph - N/A   Clear
10:53 AM 46.9 °F - 28.0 °F 48% 30.34 in 10.0 mi ESE 3.5 mph - N/A   Clear
11:53 AM 51.1 °F - 25.0 °F 36% 30.32 in 10.0 mi SE 5.8 mph - N/A   Clear
12:53 PM 54.0 °F - 26.1 °F 34% 30.29 in 10.0 mi SE 5.8 mph - N/A   Clear
1:53 PM 55.9 °F - 26.1 °F 32% 30.25 in 10.0 mi SSE 4.6 mph - N/A   Clear
2:53 PM 59.0 °F - 27.0 °F 29% 30.22 in 10.0 mi Calm Calm - N/A   Clear
3:53 PM 60.1 °F - 28.0 °F 30% 30.20 in 10.0 mi Variable 3.5 mph - N/A   Clear
4:53 PM 59.0 °F - 27.0 °F 29% 30.22 in 10.0 mi West 4.6 mph - N/A   Clear
5:53 PM 57.9 °F - 26.1 °F 30% 30.21 in 10.0 mi Calm Calm - N/A   Clear
6:53 PM 52.0 °F - 28.9 °F 41% 30.24 in 10.0 mi NNW 4.6 mph - N/A   Clear
7:53 PM 48.2 °F - 30.2 °F 50% 30.26 in 10.0 mi NNE 8.1 mph - N/A   Clear
8:53 PM 45.0 °F - 32.0 °F 60% 30.24 in 10.0 mi Calm Calm - N/A   Clear
9:53 PM 43.0 °F 39.5 °F 30.9 °F 62% 30.24 in 10.0 mi East 5.8 mph - N/A   Clear
10:53 PM 43.0 °F 41.3 °F 30.0 °F 60% 30.22 in 10.0 mi East 3.5 mph - N/A   Clear
11:53 PM 39.0 °F 35.7 °F 30.0 °F 70% 30.22 in 10.0 mi East 4.6 mph - N/A   Clear